map of LDB home
Great Circle Mapper logo
LDB - Airport
Location
City:  Londrina, Paraná, Brazil
ICAO:SBLO
IATA:LDB

Details
Type:Airport (Aerodrome, Airfield)
Use:Public/Civil
Latitude:23°20'01"S (-23.333624)
Longitude:51°07'48"W (-51.130071)
Datum:WGS 1984
Elevation:1867 ft (569 m)
Variation:18.85°W (WMM2015 magnetic declination)
-0.15° annual change
Runways:1
Longest:6890 × 148 ft (2100 × 45 m), paved

Time
Time Zone:UTC-3 (DST-2)
Local Time:

Weather
METAR:SBLO 271500Z 32007KT 9999 SCT025 SCT100 20/15 Q1021
TAF:SBLO 271430Z 2718/2806 24006KT 9999 SCT030 TX23/2718Z TN18/2805Z PROB30 2718/2721 8000 RA SCT012 BKN020
RMK PDJ

Related Locations
Nearby:
Farthest:OKA: 12220 mi / 19667 km
Okinawa [Naha Airport / Naha AB], Ryukyu Island, 47, JP

Find:

   beyond  
but within

Other Information
Maps:
NOTAMs:
Links:
Sources:

  
flag of Brazil
flag of Paraná
  

Sectional Chart

Flight Planning
at skyvector.com

Satellite Image

Google Maps Satellite view

 

Copyright © 2004-2016 Karl L. Swartz. All rights reserved.
The Great Circle Mapper name and logo are trademarks of the Great Circle Mapper.
All other trademarks mentioned herein belong to their respective owners.
Please see credits for attibutions and further copyright information.

  Follow gcmap on Facebook Follow gcmap on Twitter Follow gcmap on Google+ GCmap on LinkedIn

hCard Microformat

Geo Microformat